Weather History for Glenwood, MN

Change the Weather History Date:

Monday, October 8, 2012

  Actual Average Record
Temperature  
Mean Temperature 46 °F -  
Max Temperature 60 °F 60 °F 85 °F (1966)
Min Temperature 33 °F 38 °F 20 °F (1985)
Degree Days  
Heating Degree Days 18    
Moisture  
Dew Point 29 °F    
Average Humidity 57    
Maximum Humidity 87    
Minimum Humidity 43    
Precipitation  
Precipitation 0.00 in - - ()
Sea Level Pressure  
Sea Level Pressure 29.68 in    
Wind  
Wind Speed 8 mph (SW)    
Max Wind Speed 22 mph    
Max Gust Speed 28 mph    
Visibility 10 miles    
Events Rain    
Averages and records for this station are not official NWS values.
T = Trace of Precipitation, MM = Missing Value Source: NWS Daily Summary

Daily Weather History Graph

Daily Weather History Graph

Search for Another Location

Airport:

Trip Planner

Search our weather history database for the weather conditions in past years. The results will help you decide how hot, cold, wet, or windy it might be!

Date:

Astronomy

Oct. 08, 2012 Rise Set
Actual Time 7:29 AM CDT 6:47 PM CDT
Civil Twilight 6:59 AM CDT 7:17 PM CDT
Nautical Twilight 6:25 AM CDT 7:51 PM CDT
Astronomical Twilight 5:50 AM CDT 8:25 PM CDT
Moon No Moon Rise 2:55 PM CDT (10/8)
Length of Visible Light 12h 17m
Length of Day
11h 18m
Last Quarter, 46% of the Moon is Illuminated
Oct 8
Last Quarter
Oct 15
New
Oct 21
First Quarter
Oct 29
Full
Nov 6
Last Quarter

Hourly Weather History & Observations

Time (CDT) Temp. Windchill Dew Point Humidity Pressure Visibility Wind Dir Wind Speed Gust Speed Precip Events Conditions
12:13 AM 33.8 °F 30.8 °F 17.6 °F 52% 29.81 in 10.0 mi WSW 3.5 mph - N/A   Clear
12:33 AM 37.4 °F 32.8 °F 17.6 °F 45% 29.80 in 10.0 mi SSW 5.8 mph - N/A   Clear
12:54 AM 35.6 °F 31.7 °F 19.4 °F 52% 29.79 in 10.0 mi SW 4.6 mph - N/A   Clear
1:13 AM 35.6 °F 30.7 °F 17.6 °F 48% 29.79 in 10.0 mi SW 5.8 mph - N/A   Clear
1:33 AM 35.6 °F 29.9 °F 17.6 °F 48% 29.79 in 10.0 mi SW 6.9 mph - N/A   Clear
1:53 AM 35.6 °F 30.7 °F 17.6 °F 48% 29.79 in 10.0 mi SW 5.8 mph - N/A   Clear
2:13 AM 33.8 °F 27.7 °F 17.6 °F 52% 29.78 in 10.0 mi SSW 6.9 mph - N/A   Clear
2:33 AM 33.8 °F 27.7 °F 19.4 °F 56% 29.78 in 10.0 mi SSW 6.9 mph - N/A   Clear
2:53 AM 35.6 °F 31.7 °F 19.4 °F 52% 29.77 in 10.0 mi SSW 4.6 mph - N/A   Clear
3:13 AM 35.6 °F 31.7 °F 19.4 °F 52% 29.77 in 10.0 mi SSW 4.6 mph - N/A   Clear
3:34 AM 33.8 °F 27.7 °F 19.4 °F 56% 29.76 in 10.0 mi South 6.9 mph - N/A   Scattered Clouds
3:53 AM 33.8 °F 28.6 °F 19.4 °F 56% 29.75 in 10.0 mi South 5.8 mph - N/A   Scattered Clouds
4:13 AM 35.6 °F 31.7 °F 21.2 °F 56% 29.75 in 10.0 mi South 4.6 mph - N/A   Clear
4:34 AM 35.6 °F 30.7 °F 21.2 °F 56% 29.73 in 10.0 mi South 5.8 mph - N/A   Scattered Clouds
4:53 AM 35.6 °F 31.7 °F 21.2 °F 56% 29.73 in 10.0 mi South 4.6 mph - N/A   Mostly Cloudy
5:13 AM 37.4 °F 33.8 °F 21.2 °F 52% 29.72 in 10.0 mi South 4.6 mph - N/A   Mostly Cloudy
5:34 AM 37.4 °F 32.8 °F 21.2 °F 52% 29.71 in 10.0 mi South 5.8 mph - N/A   Mostly Cloudy
5:53 AM 37.4 °F 32.1 °F 21.2 °F 52% 29.72 in 10.0 mi SSW 6.9 mph - N/A   Mostly Cloudy
6:13 AM 37.4 °F 32.8 °F 21.2 °F 52% 29.70 in 10.0 mi SSE 5.8 mph - N/A   Overcast
6:34 AM 37.4 °F 32.8 °F 21.2 °F 52% 29.70 in 10.0 mi South 5.8 mph - N/A   Mostly Cloudy
6:53 AM 37.4 °F 34.9 °F 21.2 °F 52% 29.70 in 10.0 mi South 3.5 mph - N/A   Mostly Cloudy
7:13 AM 37.4 °F 34.9 °F 23.0 °F 56% 29.69 in 10.0 mi South 3.5 mph - N/A   Mostly Cloudy
7:34 AM 37.4 °F 33.8 °F 23.0 °F 56% 29.69 in 10.0 mi South 4.6 mph - N/A   Scattered Clouds
7:53 AM 37.4 °F 32.8 °F 23.0 °F 56% 29.69 in 10.0 mi South 5.8 mph - N/A   Mostly Cloudy
8:13 AM 39.2 °F 35.0 °F 23.0 °F 52% 29.69 in 10.0 mi South 5.8 mph - N/A   Scattered Clouds
8:34 AM 41.0 °F 35.8 °F 24.8 °F 53% 29.67 in 10.0 mi South 8.1 mph - N/A   Scattered Clouds
8:53 AM 42.8 °F 39.3 °F 24.8 °F 49% 29.66 in 10.0 mi SSE 5.8 mph - N/A   Scattered Clouds
9:13 AM 44.6 °F 39.2 °F 24.8 °F 46% 29.65 in 10.0 mi South 10.4 mph - N/A   Scattered Clouds
9:34 AM 44.6 °F 39.2 °F 24.8 °F 46% 29.64 in 10.0 mi South 10.4 mph 16.1 mph N/A   Mostly Cloudy
9:53 AM 46.4 °F 40.7 °F 24.8 °F 43% 29.64 in 10.0 mi South 12.7 mph - N/A   Mostly Cloudy
10:13 AM 46.4 °F 40.4 °F 26.6 °F 46% 29.63 in 10.0 mi South 13.8 mph - N/A   Mostly Cloudy
10:33 AM 48.2 °F - 26.6 °F 43% 29.62 in 10.0 mi South 12.7 mph 18.4 mph N/A   Scattered Clouds
11:13 AM 50.0 °F - 28.4 °F 43% 29.61 in 10.0 mi SSW 16.1 mph 23.0 mph N/A Rain Light Rain
11:33 AM 48.2 °F - 32.0 °F 54% 29.59 in 10.0 mi South 11.5 mph - N/A Rain Light Rain
11:53 AM 51.8 °F - 33.8 °F 50% 29.57 in 10.0 mi South 19.6 mph - N/A   Scattered Clouds
12:13 PM 51.8 °F - 32.0 °F 47% 29.58 in 10.0 mi South 18.4 mph 24.2 mph N/A   Mostly Cloudy
12:33 PM 51.8 °F - 32.0 °F 47% 29.58 in 10.0 mi SSW 16.1 mph 20.7 mph N/A   Overcast
12:53 PM 53.6 °F - 32.0 °F 44% 29.57 in 10.0 mi SSW 17.3 mph 20.7 mph N/A   Overcast
1:33 PM 53.6 °F - 33.8 °F 47% 29.57 in 10.0 mi SSW 15.0 mph 18.4 mph N/A   Scattered Clouds
1:53 PM 53.6 °F - 33.8 °F 47% 29.57 in 10.0 mi SSW 13.8 mph 21.9 mph N/A   Scattered Clouds
2:14 PM 55.4 °F - 37.4 °F 51% 29.57 in 10.0 mi WSW 16.1 mph 21.9 mph N/A   Scattered Clouds
2:33 PM 57.2 °F - 37.4 °F 48% 29.56 in 10.0 mi West 19.6 mph - N/A   Scattered Clouds
2:53 PM 59.0 °F - 37.4 °F 45% 29.57 in 10.0 mi WSW 15.0 mph 25.3 mph N/A   Scattered Clouds
3:14 PM 60.8 °F - 39.2 °F 45% 29.57 in 10.0 mi West 17.3 mph 24.2 mph N/A   Clear
3:33 PM 60.8 °F - 41.0 °F 48% 29.57 in 10.0 mi West 20.7 mph 26.5 mph N/A   Scattered Clouds
3:53 PM 59.0 °F - 41.0 °F 51% 29.58 in 10.0 mi West 19.6 mph - N/A   Mostly Cloudy
4:14 PM 57.2 °F - 39.2 °F 51% 29.59 in 10.0 mi WNW 16.1 mph - N/A   Mostly Cloudy
4:33 PM 57.2 °F - 39.2 °F 51% 29.60 in 10.0 mi West 21.9 mph 27.6 mph N/A   Mostly Cloudy
5:14 PM 55.4 °F - 39.2 °F 54% 29.62 in 10.0 mi WNW 20.7 mph 25.3 mph N/A   Mostly Cloudy
5:33 PM 55.4 °F - 39.2 °F 54% 29.63 in 10.0 mi WNW 20.7 mph 25.3 mph N/A   Scattered Clouds
5:53 PM 53.6 °F - 41.0 °F 62% 29.65 in 10.0 mi WNW 19.6 mph 24.2 mph N/A   Scattered Clouds
6:14 PM 51.8 °F - 39.2 °F 62% 29.67 in 10.0 mi NW 15.0 mph 24.2 mph N/A   Clear
7:14 PM 46.4 °F 42.4 °F 37.4 °F 71% 29.70 in 10.0 mi WNW 8.1 mph - N/A   Clear
7:33 PM 44.6 °F 41.4 °F 37.4 °F 76% 29.70 in 10.0 mi West 5.8 mph - N/A   Clear
7:53 PM 44.6 °F - 37.4 °F 76% 29.70 in 10.0 mi Calm Calm - N/A   Clear
8:14 PM 44.6 °F 43.1 °F 37.4 °F 76% 29.70 in 10.0 mi WSW 3.5 mph - N/A   Clear
8:33 PM 44.6 °F 42.2 °F 37.4 °F 76% 29.70 in 10.0 mi SW 4.6 mph - N/A   Clear
8:53 PM 41.0 °F 37.1 °F 35.6 °F 81% 29.70 in 10.0 mi SW 5.8 mph - N/A   Clear
9:14 PM 39.2 °F 34.2 °F 33.8 °F 81% 29.70 in 10.0 mi SW 6.9 mph - N/A   Scattered Clouds
9:33 PM 39.2 °F 34.2 °F 35.6 °F 87% 29.71 in 10.0 mi SW 6.9 mph - N/A   Mostly Cloudy
9:53 PM 42.8 °F 38.6 °F 35.6 °F 76% 29.71 in 10.0 mi SW 6.9 mph - N/A   Overcast
10:13 PM 42.8 °F 39.3 °F 37.4 °F 81% 29.71 in 10.0 mi WSW 5.8 mph - N/A   Mostly Cloudy
10:53 PM 41.0 °F 35.8 °F 35.6 °F 81% 29.72 in 10.0 mi WSW 8.1 mph - N/A   Clear
11:13 PM 39.2 °F 33.6 °F 35.6 °F 87% 29.72 in 10.0 mi WSW 8.1 mph - N/A   Clear
11:33 PM 39.2 °F 33.6 °F 35.6 °F 87% 29.72 in 10.0 mi WSW 8.1 mph - N/A   Clear
11:54 PM 37.4 °F 31.4 °F 33.8 °F 87% 29.72 in 10.0 mi WSW 8.1 mph - N/A   Clear